TimeCDT,TemperatureF,Dew PointF,Humidity,Sea Level PressureIn,VisibilityMPH,Wind Direction,Wind SpeedMPH,Gust SpeedMPH,PrecipitationIn,Events,Conditions,WindDirDegrees,DateUTC
12:53 AM,52.0,34.0,50,29.84,10.0,South,18.4,-,N/A,,Clear,190,2012-10-09 05:53:00
1:53 AM,50.0,35.1,57,29.81,10.0,South,16.1,-,N/A,,Clear,190,2012-10-09 06:53:00
2:53 AM,48.2,35.6,62,29.83,10.0,SSW,15.0,-,N/A,,Clear,200,2012-10-09 07:53:00
4:53 AM,45.0,35.1,68,29.78,10.0,SSW,12.7,-,N/A,,Clear,200,2012-10-09 09:53:00
5:53 AM,44.1,34.0,68,29.78,10.0,South,12.7,-,N/A,,Clear,190,2012-10-09 10:53:00
6:53 AM,41.0,34.0,76,29.81,10.0,Calm,Calm,-,N/A,,Clear,0,2012-10-09 11:53:00
7:53 AM,37.0,32.0,82,29.86,10.0,NW,6.9,-,N/A,,Clear,310,2012-10-09 12:53:00
8:53 AM,44.1,35.1,71,29.88,10.0,NW,5.8,-,N/A,,Clear,320,2012-10-09 13:53:00
9:53 AM,50.0,37.0,61,29.88,10.0,Calm,Calm,-,N/A,,Clear,0,2012-10-09 14:53:00
10:53 AM,55.9,37.0,49,29.91,10.0,NNW,13.8,-,N/A,,Clear,340,2012-10-09 15:53:00
11:53 AM,57.0,37.9,49,29.93,10.0,NNE,24.2,31.1,N/A,,Clear,20,2012-10-09 16:53:00
12:53 PM,60.1,41.0,49,29.94,10.0,NNE,24.2,34.5,N/A,,Partly Cloudy,20,2012-10-09 17:53:00
2:53 PM,61.0,37.0,41,29.99,10.0,NNE,24.2,29.9,N/A,,Scattered Clouds,30,2012-10-09 19:53:00
3:53 PM,61.0,37.0,41,30.01,10.0,North,20.7,25.3,N/A,,Clear,10,2012-10-09 20:53:00
4:53 PM,61.0,35.1,38,30.02,10.0,NE,16.1,24.2,N/A,,Clear,40,2012-10-09 21:53:00
5:53 PM,60.1,32.0,35,30.04,10.0,NNE,17.3,-,N/A,,Clear,20,2012-10-09 22:53:00
6:53 PM,55.9,25.0,30,30.07,10.0,North,11.5,-,N/A,,Clear,10,2012-10-09 23:53:00
7:53 PM,50.0,25.0,38,30.12,10.0,North,9.2,-,N/A,,Clear,360,2012-10-10 00:53:00
8:53 PM,45.0,23.0,42,30.15,10.0,NNE,8.1,-,N/A,,Clear,30,2012-10-10 01:53:00
10:53 PM,37.9,21.9,53,30.19,10.0,WNW,4.6,-,N/A,,Clear,300,2012-10-10 03:53:00
11:53 PM,39.9,26.1,58,30.21,10.0,WNW,3.5,-,N/A,,Clear,290,2012-10-10 04:53:00